Погода в Миатлях

Россия / Республика Дагестан     43°04′57″N   46°49′42″E
темп.,
°C
ветер,
м/с
пор.,
м/с
влажн.,
%
обл.,
%
осадки,
мм/ч
давл.,
гПа
погр.,
м
25 июня, сб
сб2500:00+15ююв11854 0.2 100912
03:00+14зюз118688 0.2 101011
06:00+16ссз118021 0.0 1010129
09:00+19св217089 0.0 1010805
12:00+21св226798 0.0 10101057
15:00+20всв3270100 0.1 1009852
18:00+19св2281100 0.8 1010243
21:00+16юв0088100 1.1 101012
26 июня, вс
вс2600:00+16юз1189100 0.0 101013
03:00+16ююз1189100 1.9 100917
06:00+16с119083 0.0 101079
09:00+19ссв2275100 0.1 1009588
12:00+22ссв2261100 0.0 1009929
15:00+22ссз2359100 0.1 10081244
18:00+21з2369100 0.4 1008287
21:00+18з2276100 0.6 101035
27 июня, пн
пн2700:00+17зюз2280100 0.1 101154
03:00+16з33801 0.1 101041
06:00+17з34800 0.0 1011195
09:00+22сз44610 0.0 1011802
12:00+24ссз545749 0.0 10111342
15:00+23ссз3365100 0.1 10121297
18:00+20сз127998 0.4 1012287
21:00+17зюз228748 0.4 101326
28 июня, вт
вт2800:00+17з2283100 0.0 101230
03:00+16з328590 0.0 101235
06:00+17зсз24762 0.0 1011185
09:00+21сз44500 0.0 1011798
12:00+24ссз44440 0.0 10101374
15:00+25ссв443834 0.0 10102093
18:00+21ссв24560 0.0 1012439
21:00+16зюз327526 0.5 101432
29 июня, ср
ср2900:00+16юз2266100 0.0 101416
03:00+16ююз325877 0.0 101320
06:00+19зюз11560 0.0 101457
09:00+21с22474 0.0 10131098
12:00+24ссв324146 0.0 10131929
15:00+22всв335563 0.0 1012949
18:00+19в4481100 0.2 1014566
21:00+17юв2393100 0.3 1015198